GPS BIIRM-8 (PRN 05) (35752 NORAD) Tracking and Keplerian Element Data

This shows tracking and keplerian element data for the satellite.

Feedback or suggestion? Click here.




ElementValue
Catalog35752
NameGPS BIIRM-8 (PRN 05)
Epoch Orbit11334
Epoch Day33.78934159
Epoch Year2025
RAAN47.1336
Inclination55.8618
Eccentricity0.005346
Argument of Perigee75.0717
Mean Anonmoly101.2144
Mean Motion2.00555657
Decay Rate-3.9E-07
L11 35752U 09043A 25033.78934159 -.00000039 00000+0 00000+0 0 9998
L22 35752 55.8618 47.1336 0053460 75.0717 101.2144 2.00555657113346



Live tracking and technical data element details for GPS BIIRM-8 (PRN 05) (NORAD 35752). GPS BIIRM-8 (PRN 05) can be tracked NOW for your location showing map with azimuth and elevation plus other details from your city location.







IsCatalogInMostPopularTable: catalog: 35752, numindb: 594
Update: records affected: 1



GetName: 35752 GPS BIIRM-8 (PRN 05)

Hit Count: updated at: Sat, 24 May 2025 15:33:59 GMT